User: anonymous   Login
Location: Mount Wilson Observatory
(34.2257°N, 118.0571°W)
Time: 01:45:09
(UTC-07:00)
Language:

ATLAS 3B CENTAUR R/B - Orbit

View from above orbital plane
View from above orbital plane
View from above satellite
View from above satellite

Ground track
Ground track

The orbit data is extracted from the following two-line orbital elements,

1 28118U 03057B   16150.88871482  .00083177  00000-0  13689-2 0  9999
2 28118  28.1300  22.6310 3299950 108.3849 289.8902  8.87480113254650
Epoch (UTC): 29 May 2016 21:19:44
Eccentricity: 0.3299950
inclination: 28.1300°
perigee height: 224 km
apogee height: 6728 km
right ascension of ascending node: 22.6310°
argument of perigee: 108.3849°
revolutions per day: 8.87480113
mean anomaly at epoch: 289.8902°
orbit number at epoch: 25465

The dashed part of the orbit path shows where the satellite is in the earth's shadow,  

DLR